{"data":{"norad_id":68570,"epoch":"2026-05-24T21:23:10.155264Z","epoch_age_seconds":74524,"freshness":"FRESH","line1":"1 68570U 26070AE  26144.89108976  .00020533  00000+0  61696-3 0  9999","line2":"2 68570  53.1614   8.4961 0000697  85.4028 274.7055 15.34411237  8228","mean_motion":15.34411237,"eccentricity":6.97e-5,"inclination_deg":53.1614,"raan_deg":8.4961,"arg_perigee_deg":85.4028,"mean_anomaly_deg":274.7055,"bstar":0.00061696,"rev_number":822,"period_min":93.847070803223,"perigee_km":462.19303744197,"apogee_km":463.1466459157,"semimajor_km":6840.8068416788,"source":"CELESTRAK","updated_at":"2026-05-25T13:38:21.965722Z"}}